• In Germany
  • List of Countries
  • For 7 days
  • Water Temperature
  • Satellite Maps
  • Weather Map
  • Weather Widgets
  • user-avatar
    Login

    Hourly Weather Pasto

    Today, 20 November, Monday

    Time Temperature Precipitation Wind Pressure Humidity
    00:00 +11°C° 0.8 mm 1 mps 547 mmHg 96%
    01:00 +10°C° 0 mm 0 mps 547 mmHg 95%
    02:00 +11°C° 0.6 mm 1 mps 547 mmHg 95%
    03:00 +10°C° 0.6 mm 1 mps 547 mmHg 94%
    04:00 +10°C° 0.6 mm 1 mps 546 mmHg 94%
    05:00 +11°C° 0.5 mm 1 mps 547 mmHg 92%
    06:00 +11°C° 0.5 mm 1 mps 547 mmHg 90%
    07:00 +10°C° 0.5 mm 0 mps 548 mmHg 89%
    08:00 +12°C° 0.5 mm 1 mps 549 mmHg 86%
    09:00 +13°C° 0.5 mm 1 mps 549 mmHg 83%
    10:00 +14°C° 0.5 mm 1 mps 550 mmHg 80%
    11:00 +14°C° 0.7 mm 1 mps 550 mmHg 81%
    12:00 +14°C° 0.7 mm 1 mps 549 mmHg 81%
    13:00 +14°C° 0.7 mm 1 mps 549 mmHg 82%
    14:00 +13°C° 1.2 mm 1 mps 548 mmHg 84%
    15:00 +13°C° 1.2 mm 1 mps 548 mmHg 86%
    16:00 +12°C° 1.2 mm 1 mps 547 mmHg 89%
    17:00 +12°C° 1 mm 1 mps 547 mmHg 90%
    18:00 +11°C° 1 mm 1 mps 547 mmHg 92%
    19:00 +11°C° 1 mm 1 mps 547 mmHg 94%
    20:00 +10°C° 0.3 mm 1 mps 547 mmHg 93%
    21:00 +10°C° 0.3 mm 1 mps 548 mmHg 92%
    22:00 +10°C° 0.3 mm 1 mps 548 mmHg 91%
    23:00 +10°C° 0.2 mm 1 mps 548 mmHg 91%

    Tomorrow, 21 November, Tuesday

    Time Temperature Precipitation Wind Pressure Humidity
    00:00 +10°C° 0.2 mm 1 mps 547 mmHg 91%
    01:00 +9°C° 0.2 mm 0 mps 547 mmHg 90%
    02:00 +8°C° 0.1 mm 0 mps 547 mmHg 90%
    03:00 +8°C° 0.1 mm 0 mps 546 mmHg 91%
    04:00 +8°C° 0.1 mm 0 mps 546 mmHg 91%
    05:00 +8°C° 0 mm 0 mps 547 mmHg 89%
    06:00 +9°C° 0 mm 0 mps 547 mmHg 87%
    07:00 +11°C° 0 mm 1 mps 548 mmHg 85%
    08:00 +13°C° 0 mm 1 mps 549 mmHg 77%
    09:00 +15°C° 0 mm 1 mps 550 mmHg 70%
    10:00 +16°C° 0 mm 1 mps 551 mmHg 62%
    11:00 +17°C° 0.1 mm 2 mps 551 mmHg 62%
    12:00 +17°C° 0.1 mm 2 mps 550 mmHg 62%
    13:00 +17°C° 0.1 mm 2 mps 550 mmHg 62%
    14:00 +16°C° 0.5 mm 2 mps 549 mmHg 67%
    15:00 +15°C° 0.5 mm 2 mps 548 mmHg 71%
    16:00 +15°C° 0.5 mm 1 mps 548 mmHg 76%
    17:00 +14°C° 0.6 mm 1 mps 548 mmHg 81%
    18:00 +12°C° 0.6 mm 1 mps 547 mmHg 87%
    19:00 +10°C° 0.6 mm 0 mps 547 mmHg 92%
    20:00 +10°C° 0.4 mm 0 mps 547 mmHg 93%
    21:00 +10°C° 0.4 mm 0 mps 548 mmHg 93%
    22:00 +10°C° 0.4 mm 0 mps 548 mmHg 94%
    23:00 +10°C° 0.2 mm 0 mps 548 mmHg 94%

    Day after tomorrow, 22 November, Wednesday

    Time Temperature Precipitation Wind Pressure Humidity
    00:00 +11°C° 0.2 mm 1 mps 548 mmHg 95%
    01:00 +10°C° 0.2 mm 1 mps 548 mmHg 96%
    02:00 +10°C° 0.1 mm 1 mps 547 mmHg 96%
    03:00 +10°C° 0.1 mm 1 mps 547 mmHg 96%
    04:00 +10°C° 0.1 mm 1 mps 547 mmHg 96%
    05:00 +10°C° 0 mm 1 mps 547 mmHg 93%
    06:00 +10°C° 0 mm 0 mps 548 mmHg 91%
    07:00 +10°C° 0 mm 0 mps 548 mmHg 89%
    08:00 +13°C° 0 mm 1 mps 549 mmHg 79%
    09:00 +15°C° 0 mm 1 mps 551 mmHg 69%
    10:00 +18°C° 0 mm 1 mps 552 mmHg 60%
    11:00 +17°C° 0.1 mm 2 mps 551 mmHg 61%
    12:00 +17°C° 0.1 mm 2 mps 551 mmHg 63%
    13:00 +17°C° 0.1 mm 2 mps 550 mmHg 64%
    14:00 +16°C° 0.6 mm 2 mps 549 mmHg 70%
    15:00 +15°C° 0.6 mm 2 mps 548 mmHg 76%
    16:00 +14°C° 0.6 mm 2 mps 547 mmHg 82%
    17:00 +13°C° 1 mm 1 mps 547 mmHg 86%
    18:00 +12°C° 1 mm 1 mps 547 mmHg 91%
    19:00 +10°C° 1 mm 0 mps 547 mmHg 95%
    20:00 +10°C° 0.8 mm 0 mps 548 mmHg 95%
    21:00 +10°C° 0.8 mm 0 mps 548 mmHg 96%
    22:00 +10°C° 0.8 mm 0 mps 548 mmHg 96%
    23:00 +10°C° 0.3 mm 0 mps 548 mmHg 96%

    23 November, Thursday

    Time Temperature Precipitation Wind Pressure Humidity
    00:00 +10°C° 0.3 mm 0 mps 548 mmHg 96%
    01:00 +10°C° 0.3 mm 1 mps 548 mmHg 96%
    02:00 +10°C° 0.2 mm 1 mps 547 mmHg 96%
    03:00 +10°C° 0.2 mm 1 mps 547 mmHg 96%
    04:00 +10°C° 0.2 mm 1 mps 547 mmHg 97%
    05:00 +10°C° 0 mm 1 mps 547 mmHg 95%
    06:00 +10°C° 0 mm 0 mps 548 mmHg 94%
    07:00 +10°C° 0 mm 0 mps 548 mmHg 93%
    08:00 +12°C° 0 mm 1 mps 549 mmHg 86%
    09:00 +14°C° 0 mm 1 mps 550 mmHg 79%
    10:00 +15°C° 0 mm 1 mps 551 mmHg 72%
    11:00 +15°C° 0.1 mm 2 mps 550 mmHg 72%
    12:00 +15°C° 0.1 mm 2 mps 550 mmHg 71%
    13:00 +16°C° 0.1 mm 2 mps 550 mmHg 70%
    14:00 +15°C° 0.2 mm 2 mps 549 mmHg 74%
    15:00 +15°C° 0.2 mm 2 mps 548 mmHg 77%
    16:00 +14°C° 0.2 mm 2 mps 547 mmHg 81%
    17:00 +13°C° 0.5 mm 1 mps 547 mmHg 86%
    18:00 +12°C° 0.5 mm 1 mps 547 mmHg 91%
    19:00 +10°C° 0.5 mm 0 mps 547 mmHg 96%
    20:00 +10°C° 0.4 mm 0 mps 548 mmHg 96%
    21:00 +10°C° 0.4 mm 0 mps 548 mmHg 96%
    22:00 +10°C° 0.4 mm 0 mps 548 mmHg 96%
    23:00 +10°C° 0.2 mm 0 mps 548 mmHg 96%

    24 November, Friday

    Time Temperature Precipitation Wind Pressure Humidity
    00:00 +10°C° 0.2 mm 0 mps 548 mmHg 96%
    01:00 +10°C° 0.2 mm 0 mps 547 mmHg 96%
    02:00 +9°C° 0.2 mm 0 mps 547 mmHg 95%
    03:00 +10°C° 0.2 mm 1 mps 547 mmHg 95%
    04:00 +10°C° 0.2 mm 1 mps 547 mmHg 95%
    05:00 +11°C° 0.1 mm 1 mps 547 mmHg 94%
    06:00 +11°C° 0.1 mm 1 mps 548 mmHg 93%
    07:00 +11°C° 0.1 mm 1 mps 548 mmHg 91%
    08:00 +12°C° 0 mm 1 mps 549 mmHg 84%
    09:00 +14°C° 0 mm 1 mps 550 mmHg 76%
    10:00 +15°C° 0 mm 1 mps 551 mmHg 68%
    11:00 +16°C° 0.2 mm 1 mps 551 mmHg 67%
    12:00 +16°C° 0.2 mm 2 mps 550 mmHg 66%
    13:00 +16°C° 0.2 mm 2 mps 550 mmHg 65%
    14:00 +15°C° 0.5 mm 2 mps 549 mmHg 71%
    15:00 +14°C° 0.5 mm 1 mps 548 mmHg 78%
    16:00 +13°C° 0.5 mm 1 mps 547 mmHg 84%
    17:00 +13°C° 1.4 mm 1 mps 547 mmHg 88%
    18:00 +12°C° 1.4 mm 1 mps 547 mmHg 92%
    19:00 +10°C° 1.4 mm 0 mps 547 mmHg 96%
    20:00 +10°C° 2.2 mm 0 mps 548 mmHg 96%
    21:00 +10°C° 2.2 mm 0 mps 548 mmHg 95%
    22:00 +10°C° 2.2 mm 0 mps 549 mmHg 95%
    23:00 +10°C° 1.4 mm 0 mps 548 mmHg 95%

    25 November, Saturday

    Time Temperature Precipitation Wind Pressure Humidity
    00:00 +10°C° 1.4 mm 1 mps 548 mmHg 94%
    01:00 +10°C° 1.4 mm 1 mps 547 mmHg 94%
    02:00 +10°C° 0.8 mm 1 mps 547 mmHg 93%
    03:00 +9°C° 0.8 mm 0 mps 547 mmHg 92%
    04:00 +9°C° 0.8 mm 0 mps 547 mmHg 91%
    05:00 +10°C° 0.5 mm 1 mps 547 mmHg 90%
    06:00 +10°C° 0.5 mm 1 mps 548 mmHg 89%
    07:00 +10°C° 0.5 mm 1 mps 548 mmHg 88%
    08:00 +11°C° 0.6 mm 1 mps 549 mmHg 85%
    09:00 +12°C° 0.6 mm 1 mps 550 mmHg 81%
    10:00 +13°C° 0.6 mm 1 mps 550 mmHg 78%
    11:00 +14°C° 0.5 mm 1 mps 550 mmHg 77%
    12:00 +14°C° 0.5 mm 1 mps 550 mmHg 76%
    13:00 +14°C° 0.5 mm 1 mps 549 mmHg 75%
    14:00 +14°C° 0.5 mm 1 mps 549 mmHg 78%
    15:00 +13°C° 0.5 mm 1 mps 548 mmHg 80%
    16:00 +13°C° 0.5 mm 1 mps 548 mmHg 83%
    17:00 +12°C° 0.4 mm 1 mps 548 mmHg 87%
    18:00 +11°C° 0.4 mm 0 mps 548 mmHg 90%
    19:00 +10°C° 0.4 mm 0 mps 548 mmHg 94%
    20:00 +10°C° 0.5 mm 0 mps 548 mmHg 94%
    21:00 +10°C° 0.5 mm 0 mps 548 mmHg 94%
    22:00 +9°C° 0.5 mm 0 mps 549 mmHg 94%
    23:00 +9°C° 0.6 mm 0 mps 548 mmHg 94%
    Show more